星链-5479 (STARLINK-5479 )

导读

STARLINK-5479是美国SpaceX公司星链(Starlink)低轨卫星互联网星座中的一颗卫星,于2023年2月17日由猎鹰9号火箭发射升空。作为星链星座组网的组成部分,它运行在近地轨道,依托霍尔推进器、高通量天线等设备,为全球提供高速低延迟卫星宽带服务,助力扩大网络覆盖范围,改善偏远地区互联网接入条件。

Basic Information
目录编号:
55662
目录名称:
STARLINK-5479
国际标识:
2023-021AL
轨道中心:
EARTH
卫星名称:
星链-5479
卫星全名:
星链-5479 (STARLINK-5479 )
卫星状态:
在轨 (已飞行1296 天)
发射日期:
2023-02-17 UTC
国别 :
美国 (US)
星等 :
--
Orbit Information
数据来源 国际轨道数据
星历时间: 2026-09-04T20:47:14+0800
12小时前
查看轨道信息
半长轴: 6952.707km
偏心率: 0.0002634
轨道倾角: 69.999°
近地点辐角 271.363°
升交点赤经 73.931°
平近点角 88.722°
近地点: 572.738km
远地点: 576.402km
周期: 96.159分钟
每日圈数: 14.975174
Detailed Information
固有亮度:
5
最大亮度:
2.5
卫星平台:
Starlink v1.5
覆盖范围:
全球
运营商:
太空探索技术公司
运营商所在国:
美国
制造商(研发单位):
太空探索技术公司
制造商所在国:
美国
使用方式:
暂无
Satellite Introduction
星链(Starlink)计划是由太空探索技术公司(SpaceX)提出的一个巨型低轨卫星互联网星座项目,计划在2019年至2024年间在太空搭建由约1.2万颗卫星组成的“星链”网络,其中1584颗将部署在地球上空550千米处的近地轨道,并从2020年开始工作。该卫星仍在工作。
2D Orbit Map
3D Orbit Map
Orbit Altitude Analysis Chart
Orbit Inclination Analysis Chart
Orbit Comprehensive Analysis Chart
View Comprehensive Chart
Conjunction Data List
Event ID Objects TCA Miss Dist (km) Collision Risk Probability Collision Risk Index (CRI) Action
CDM_260905-014905-528905-566224
2026-09-05T
01:49:08+0000
2.021 km
极远距离
2.616954E-6 低风险 0.43
CDM_260906-024904-005705-566223
VELOX 1 (40057)
2026-09-06T
02:49:27+0000
1.969 km
极远距离
2.448072E-6 低风险 0.43
CDM_260905-013204-461205-566225
2026-09-05T
01:32:52+0000
2.193 km
极远距离
2.314833E-6 低风险 0.42
CDM_260905-082105-566206-700521
2026-09-05T
08:21:52+0000
2.007 km
极远距离
1.959079E-6 低风险 0.41
CDM_260907-020705-566206-269422
2026-09-07T
02:07:21+0000
2.232 km
极远距离
1.916689E-6 低风险 0.41
CDM_260906-061205-566205-594322
2026-09-06T
06:12:08+0000
2.818 km
极远距离
1.303051E-6 低风险 0.37
CDM_260905-113905-566205-578422
2026-09-05T
11:39:44+0000
2.553 km
极远距离
8.885983E-7 极低风险 0.34
CDM_260905-113505-566205-647423
2026-09-05T
11:35:57+0000
2.987 km
极远距离
7.280897E-7 极低风险 0.32